• In Germany
  • List of Countries
  • For 7 days
  • Water Temperature
  • Satellite Maps
  • Weather Map
  • Weather Widgets
  • user-avatar
    Login

    Hourly Weather Paralia

    Today, 15 December, Friday

    Time Temperature Precipitation Wind Pressure Humidity
    00:00 +10°C° 0 mm 2 mps 750 mmHg 91%
    01:00 +10°C° 0 mm 2 mps 750 mmHg 91%
    02:00 +10°C° 0 mm 2 mps 749 mmHg 91%
    03:00 +10°C° 0 mm 2 mps 749 mmHg 90%
    04:00 +10°C° 0 mm 2 mps 749 mmHg 90%
    05:00 +9°C° 0 mm 2 mps 749 mmHg 90%
    06:00 +9°C° 0 mm 2 mps 749 mmHg 89%
    07:00 +9°C° 0 mm 2 mps 749 mmHg 89%
    08:00 +12°C° 0 mm 2 mps 749 mmHg 83%
    09:00 +14°C° 0 mm 2 mps 749 mmHg 78%
    10:00 +15°C° 0 mm 2 mps 749 mmHg 72%
    11:00 +16°C° 0 mm 3 mps 749 mmHg 71%
    12:00 +16°C° 0 mm 3 mps 749 mmHg 70%
    13:00 +17°C° 0 mm 3 mps 748 mmHg 70%
    14:00 +16°C° 0.1 mm 3 mps 748 mmHg 75%
    15:00 +14°C° 0.1 mm 3 mps 748 mmHg 79%
    16:00 +13°C° 0.1 mm 3 mps 748 mmHg 84%
    17:00 +13°C° 0.1 mm 3 mps 748 mmHg 86%
    18:00 +13°C° 0.1 mm 3 mps 748 mmHg 88%
    19:00 +13°C° 0.1 mm 3 mps 748 mmHg 89%
    20:00 +13°C° 0.1 mm 3 mps 748 mmHg 89%
    21:00 +13°C° 0.1 mm 3 mps 748 mmHg 88%
    22:00 +12°C° 0.1 mm 3 mps 748 mmHg 88%
    23:00 +13°C° 0.1 mm 3 mps 748 mmHg 89%

    Tomorrow, 16 December, Saturday

    Time Temperature Precipitation Wind Pressure Humidity
    00:00 +13°C° 0.1 mm 4 mps 748 mmHg 89%
    01:00 +13°C° 0.1 mm 4 mps 747 mmHg 90%
    02:00 +13°C° 0.1 mm 4 mps 747 mmHg 91%
    03:00 +13°C° 0.1 mm 4 mps 747 mmHg 92%
    04:00 +14°C° 0.1 mm 4 mps 747 mmHg 93%
    05:00 +14°C° 0 mm 4 mps 747 mmHg 92%
    06:00 +14°C° 0 mm 4 mps 747 mmHg 92%
    07:00 +13°C° 0 mm 3 mps 747 mmHg 92%
    08:00 +15°C° 0 mm 4 mps 746 mmHg 85%
    09:00 +17°C° 0 mm 4 mps 746 mmHg 78%
    10:00 +17°C° 0 mm 5 mps 746 mmHg 71%
    11:00 +16°C° 0.4 mm 5 mps 745 mmHg 73%
    12:00 +16°C° 0.4 mm 5 mps 745 mmHg 74%
    13:00 +16°C° 0.4 mm 5 mps 744 mmHg 76%
    14:00 +15°C° 1.8 mm 5 mps 744 mmHg 80%
    15:00 +14°C° 1.8 mm 5 mps 743 mmHg 84%
    16:00 +13°C° 1.8 mm 4 mps 743 mmHg 89%
    17:00 +13°C° 3.3 mm 4 mps 743 mmHg 90%
    18:00 +13°C° 3.3 mm 5 mps 743 mmHg 92%
    19:00 +14°C° 3.3 mm 5 mps 743 mmHg 93%
    20:00 +13°C° 1.8 mm 4 mps 744 mmHg 93%
    21:00 +13°C° 1.8 mm 3 mps 744 mmHg 93%
    22:00 +14°C° 1.8 mm 2 mps 744 mmHg 93%
    23:00 +14°C° 0.3 mm 2 mps 744 mmHg 93%

    Day after tomorrow, 17 December, Sunday

    Time Temperature Precipitation Wind Pressure Humidity
    00:00 +14°C° 0.3 mm 2 mps 744 mmHg 94%
    01:00 +12°C° 0.3 mm 3 mps 744 mmHg 94%
    02:00 +12°C° 0.4 mm 3 mps 744 mmHg 94%
    03:00 +12°C° 0.4 mm 3 mps 744 mmHg 93%
    04:00 +12°C° 0.4 mm 3 mps 744 mmHg 93%
    05:00 +12°C° 0.2 mm 3 mps 745 mmHg 93%
    06:00 +11°C° 0.2 mm 3 mps 745 mmHg 92%
    07:00 +12°C° 0.2 mm 2 mps 746 mmHg 92%
    08:00 +11°C° 0.1 mm 3 mps 747 mmHg 86%
    09:00 +12°C° 0.1 mm 3 mps 747 mmHg 81%
    10:00 +12°C° 0.1 mm 3 mps 748 mmHg 76%
    11:00 +13°C° 0.1 mm 3 mps 748 mmHg 74%
    12:00 +13°C° 0.1 mm 3 mps 748 mmHg 71%
    13:00 +13°C° 0.1 mm 3 mps 748 mmHg 68%
    14:00 +12°C° 0.1 mm 3 mps 748 mmHg 71%
    15:00 +11°C° 0.1 mm 3 mps 748 mmHg 74%
    16:00 +12°C° 0.1 mm 2 mps 748 mmHg 77%
    17:00 +10°C° 0.1 mm 2 mps 749 mmHg 79%
    18:00 +10°C° 0.1 mm 2 mps 749 mmHg 81%
    19:00 +9°C° 0.1 mm 2 mps 750 mmHg 83%
    20:00 +9°C° 0.1 mm 2 mps 750 mmHg 84%
    21:00 +9°C° 0.1 mm 2 mps 751 mmHg 85%
    22:00 +10°C° 0.1 mm 1 mps 751 mmHg 87%
    23:00 +8°C° 0.1 mm 2 mps 751 mmHg 86%

    18 December, Monday

    Time Temperature Precipitation Wind Pressure Humidity
    00:00 +8°C° 0.1 mm 2 mps 751 mmHg 86%
    01:00 +8°C° 0.1 mm 2 mps 752 mmHg 86%
    02:00 +8°C° 0 mm 2 mps 752 mmHg 85%
    03:00 +7°C° 0 mm 2 mps 752 mmHg 84%
    04:00 +7°C° 0 mm 2 mps 752 mmHg 83%
    05:00 +7°C° 0 mm 2 mps 752 mmHg 83%
    06:00 +6°C° 0 mm 2 mps 753 mmHg 82%
    07:00 +6°C° 0 mm 2 mps 753 mmHg 81%
    08:00 +7°C° 0 mm 2 mps 753 mmHg 75%
    09:00 +9°C° 0 mm 2 mps 753 mmHg 69%
    10:00 +10°C° 0 mm 2 mps 754 mmHg 63%
    11:00 +10°C° 0 mm 3 mps 753 mmHg 61%
    12:00 +10°C° 0 mm 3 mps 753 mmHg 59%
    13:00 +11°C° 0 mm 3 mps 753 mmHg 57%
    14:00 +10°C° 0.1 mm 3 mps 753 mmHg 62%
    15:00 +9°C° 0.1 mm 3 mps 753 mmHg 66%
    16:00 +8°C° 0.1 mm 3 mps 753 mmHg 71%
    17:00 +7°C° 0 mm 2 mps 753 mmHg 73%
    18:00 +7°C° 0 mm 2 mps 753 mmHg 76%
    19:00 +7°C° 0 mm 1 mps 753 mmHg 78%
    20:00 +7°C° 0 mm 1 mps 754 mmHg 79%
    21:00 +6°C° 0 mm 1 mps 754 mmHg 80%
    22:00 +6°C° 0 mm 1 mps 754 mmHg 81%
    23:00 +6°C° 0 mm 1 mps 754 mmHg 82%

    19 December, Tuesday

    Time Temperature Precipitation Wind Pressure Humidity
    00:00 +6°C° 0 mm 1 mps 755 mmHg 82%
    01:00 +6°C° 0 mm 1 mps 755 mmHg 83%
    02:00 +6°C° 0 mm 1 mps 755 mmHg 83%
    03:00 +6°C° 0 mm 1 mps 755 mmHg 83%
    04:00 +5°C° 0 mm 2 mps 755 mmHg 83%
    05:00 +5°C° 0 mm 2 mps 755 mmHg 83%
    06:00 +5°C° 0 mm 2 mps 755 mmHg 83%
    07:00 +5°C° 0 mm 2 mps 756 mmHg 84%
    08:00 +6°C° 0 mm 2 mps 756 mmHg 76%
    09:00 +7°C° 0 mm 2 mps 756 mmHg 69%
    10:00 +9°C° 0 mm 2 mps 756 mmHg 62%
    11:00 +10°C° 0 mm 1 mps 756 mmHg 58%
    12:00 +11°C° 0 mm 1 mps 756 mmHg 55%
    13:00 +11°C° 0 mm 1 mps 755 mmHg 52%
    14:00 +11°C° 0 mm 1 mps 755 mmHg 56%
    15:00 +10°C° 0 mm 1 mps 755 mmHg 60%
    16:00 +9°C° 0 mm 1 mps 755 mmHg 64%
    17:00 +8°C° 0 mm 1 mps 755 mmHg 67%
    18:00 +8°C° 0 mm 1 mps 756 mmHg 70%
    19:00 +6°C° 0 mm 2 mps 756 mmHg 73%
    20:00 +6°C° 0 mm 2 mps 756 mmHg 75%
    21:00 +6°C° 0 mm 2 mps 756 mmHg 76%
    22:00 +5°C° 0 mm 2 mps 756 mmHg 78%
    23:00 +5°C° 0 mm 2 mps 756 mmHg 79%

    20 December, Wednesday

    Time Temperature Precipitation Wind Pressure Humidity
    00:00 +5°C° 0 mm 2 mps 755 mmHg 79%
    01:00 +5°C° 0 mm 2 mps 755 mmHg 80%
    02:00 +5°C° 0 mm 2 mps 755 mmHg 80%
    03:00 +5°C° 0 mm 2 mps 755 mmHg 80%
    04:00 +5°C° 0 mm 2 mps 755 mmHg 80%
    05:00 +5°C° 0 mm 2 mps 755 mmHg 81%
    06:00 +5°C° 0 mm 2 mps 755 mmHg 81%
    07:00 +4°C° 0 mm 2 mps 755 mmHg 81%
    08:00 +6°C° 0.1 mm 2 mps 755 mmHg 75%
    09:00 +7°C° 0.1 mm 2 mps 755 mmHg 69%
    10:00 +8°C° 0.1 mm 2 mps 755 mmHg 64%
    11:00 +9°C° 0 mm 2 mps 754 mmHg 61%
    12:00 +9°C° 0 mm 2 mps 754 mmHg 59%
    13:00 +9°C° 0 mm 2 mps 754 mmHg 56%
    14:00 +9°C° 0 mm 2 mps 754 mmHg 60%
    15:00 +8°C° 0 mm 2 mps 754 mmHg 63%
    16:00 +7°C° 0 mm 2 mps 754 mmHg 67%
    17:00 +6°C° 0.1 mm 2 mps 754 mmHg 69%
    18:00 +6°C° 0.1 mm 2 mps 754 mmHg 72%
    19:00 +4°C° 0.1 mm 3 mps 754 mmHg 74%
    20:00 +4°C° 0.2 mm 3 mps 755 mmHg 75%
    21:00 +4°C° 0.2 mm 3 mps 755 mmHg 76%
    22:00 +4°C° 0.2 mm 3 mps 755 mmHg 77%
    23:00 +4°C° 0.2 mm 3 mps 755 mmHg 78%
    Show more